When you browse on this site, cookies collect data to enhance your experience and personalize the content and advertising you see.
Visit our Privacy Policy to learn more. By continuing to use the site, you agree to this use of cookies and data.
  • In Latvia
  • List of Countries
  • For 7 days
  • Water Temperature
  • Satellite Maps
  • Weather Map
  • Weather Widgets
  • user-avatar
    Login

    Hourly Weather Burgas

    Today, 21 November, Wednesday

    Time Temperature Precipitation Wind Pressure Humidity
    00:00 +8°C° 0.6 mm 4 mps 762 mmHg 96%
    01:00 +8°C° 0.6 mm 4 mps 762 mmHg 96%
    02:00 +10°C° 0.6 mm 4 mps 761 mmHg 97%
    03:00 +10°C° 0.5 mm 4 mps 761 mmHg 97%
    04:00 +10°C° 0.5 mm 4 mps 760 mmHg 97%
    05:00 +11°C° 0.5 mm 4 mps 760 mmHg 97%
    06:00 +11°C° 0.6 mm 4 mps 759 mmHg 97%
    07:00 +11°C° 0.6 mm 4 mps 759 mmHg 97%
    08:00 +10°C° 0.6 mm 5 mps 758 mmHg 97%
    09:00 +12°C° 0.7 mm 5 mps 758 mmHg 95%
    10:00 +13°C° 0.7 mm 5 mps 758 mmHg 93%
    11:00 +13°C° 0.7 mm 5 mps 758 mmHg 92%
    12:00 +13°C° 0.8 mm 5 mps 757 mmHg 92%
    13:00 +13°C° 0.8 mm 5 mps 757 mmHg 92%
    14:00 +13°C° 0.8 mm 5 mps 757 mmHg 93%
    15:00 +13°C° 1 mm 5 mps 757 mmHg 94%
    16:00 +13°C° 1 mm 4 mps 757 mmHg 95%
    17:00 +13°C° 1 mm 4 mps 757 mmHg 95%
    18:00 +12°C° 1 mm 4 mps 757 mmHg 95%
    19:00 +12°C° 1 mm 5 mps 757 mmHg 94%
    20:00 +12°C° 1 mm 5 mps 757 mmHg 94%
    21:00 +11°C° 1.4 mm 6 mps 758 mmHg 93%
    22:00 +11°C° 1.4 mm 6 mps 758 mmHg 93%
    23:00 +10°C° 1.4 mm 7 mps 758 mmHg 92%

    Tomorrow, 22 November, Thursday

    Time Temperature Precipitation Wind Pressure Humidity
    00:00 +10°C° 1.5 mm 7 mps 759 mmHg 91%
    01:00 +10°C° 1.5 mm 8 mps 759 mmHg 90%
    02:00 +9°C° 1.5 mm 8 mps 759 mmHg 90%
    03:00 +9°C° 0.9 mm 8 mps 759 mmHg 89%
    04:00 +7°C° 0.9 mm 8 mps 760 mmHg 89%
    05:00 +7°C° 0.9 mm 8 mps 760 mmHg 89%
    06:00 +7°C° 0.9 mm 8 mps 760 mmHg 89%
    07:00 +7°C° 0.9 mm 8 mps 761 mmHg 88%
    08:00 +6°C° 0.9 mm 9 mps 761 mmHg 88%
    09:00 +6°C° 0.5 mm 8 mps 762 mmHg 88%
    10:00 +6°C° 0.5 mm 8 mps 762 mmHg 87%
    11:00 +6°C° 0.5 mm 8 mps 763 mmHg 87%
    12:00 +6°C° 0.2 mm 8 mps 763 mmHg 86%
    13:00 +6°C° 0.2 mm 8 mps 763 mmHg 85%
    14:00 +6°C° 0.2 mm 8 mps 763 mmHg 84%
    15:00 +6°C° 0.1 mm 7 mps 764 mmHg 84%
    16:00 +5°C° 0.1 mm 7 mps 764 mmHg 83%
    17:00 +5°C° 0.1 mm 7 mps 764 mmHg 83%
    18:00 +5°C° 0 mm 6 mps 765 mmHg 83%
    19:00 +5°C° 0 mm 6 mps 765 mmHg 83%
    20:00 +4°C° 0 mm 6 mps 766 mmHg 82%
    21:00 +5°C° 0 mm 5 mps 766 mmHg 82%
    22:00 +5°C° 0 mm 5 mps 766 mmHg 82%
    23:00 +3°C° 0 mm 5 mps 766 mmHg 82%

    Day after tomorrow, 23 November, Friday

    Time Temperature Precipitation Wind Pressure Humidity
    00:00 +3°C° 0 mm 5 mps 767 mmHg 82%
    01:00 +4°C° 0 mm 4 mps 767 mmHg 82%
    02:00 +3°C° 0 mm 4 mps 767 mmHg 82%
    03:00 +3°C° 0 mm 4 mps 767 mmHg 81%
    04:00 +3°C° 0 mm 4 mps 767 mmHg 80%
    05:00 +1°C° 0 mm 4 mps 767 mmHg 80%
    06:00 +1°C° 0 mm 4 mps 768 mmHg 79%
    07:00 +2°C° 0 mm 3 mps 768 mmHg 78%
    08:00 +2°C° 0 mm 3 mps 769 mmHg 77%
    09:00 +3°C° 0 mm 3 mps 769 mmHg 70%
    10:00 +4°C° 0 mm 3 mps 769 mmHg 62%
    11:00 +5°C° 0 mm 4 mps 769 mmHg 55%
    12:00 +6°C° 0 mm 4 mps 769 mmHg 53%
    13:00 +7°C° 0 mm 4 mps 769 mmHg 50%
    14:00 +7°C° 0 mm 4 mps 769 mmHg 48%
    15:00 +7°C° 0 mm 3 mps 769 mmHg 52%
    16:00 +5°C° 0 mm 3 mps 769 mmHg 57%
    17:00 +4°C° 0 mm 3 mps 769 mmHg 62%
    18:00 +4°C° 0 mm 3 mps 769 mmHg 64%
    19:00 +4°C° 0 mm 3 mps 769 mmHg 66%
    20:00 +3°C° 0 mm 3 mps 770 mmHg 68%
    21:00 +3°C° 0 mm 3 mps 770 mmHg 68%
    22:00 +3°C° 0 mm 3 mps 770 mmHg 69%
    23:00 +3°C° 0 mm 3 mps 770 mmHg 69%

    24 November, Saturday

    Time Temperature Precipitation Wind Pressure Humidity
    00:00 +3°C° 0 mm 3 mps 770 mmHg 69%
    01:00 +3°C° 0 mm 3 mps 770 mmHg 70%
    02:00 +2°C° 0 mm 3 mps 769 mmHg 70%
    03:00 +2°C° 0 mm 3 mps 769 mmHg 71%
    04:00 +3°C° 0 mm 2 mps 769 mmHg 72%
    05:00 +3°C° 0 mm 2 mps 769 mmHg 74%
    06:00 +3°C° 0 mm 2 mps 769 mmHg 75%
    07:00 +3°C° 0 mm 2 mps 769 mmHg 76%
    08:00 +3°C° 0 mm 2 mps 769 mmHg 76%
    09:00 +5°C° 0 mm 2 mps 769 mmHg 73%
    10:00 +6°C° 0 mm 2 mps 768 mmHg 70%
    11:00 +8°C° 0 mm 2 mps 768 mmHg 67%
    12:00 +8°C° 0 mm 2 mps 767 mmHg 65%
    13:00 +9°C° 0 mm 2 mps 767 mmHg 63%
    14:00 +9°C° 0 mm 2 mps 766 mmHg 62%
    15:00 +8°C° 0 mm 2 mps 766 mmHg 67%
    16:00 +7°C° 0 mm 2 mps 766 mmHg 73%
    17:00 +8°C° 0 mm 1 mps 766 mmHg 78%
    18:00 +7°C° 0 mm 1 mps 766 mmHg 81%
    19:00 +7°C° 0 mm 1 mps 766 mmHg 84%
    20:00 +6°C° 0 mm 1 mps 766 mmHg 87%
    21:00 +5°C° 0 mm 0 mps 765 mmHg 88%
    22:00 +5°C° 0 mm 0 mps 765 mmHg 89%
    23:00 +5°C° 0 mm 0 mps 765 mmHg 90%

    25 November, Sunday

    Time Temperature Precipitation Wind Pressure Humidity
    00:00 +5°C° 0 mm 1 mps 765 mmHg 90%
    01:00 +5°C° 0 mm 1 mps 764 mmHg 90%
    02:00 +5°C° 0 mm 1 mps 764 mmHg 90%
    03:00 +5°C° 0 mm 1 mps 764 mmHg 90%
    04:00 +5°C° 0 mm 1 mps 763 mmHg 90%
    05:00 +5°C° 0 mm 1 mps 763 mmHg 90%
    06:00 +5°C° 0 mm 1 mps 763 mmHg 89%
    07:00 +5°C° 0 mm 1 mps 763 mmHg 89%
    08:00 +5°C° 0 mm 1 mps 763 mmHg 88%
    09:00 +6°C° 0 mm 2 mps 763 mmHg 81%
    10:00 +7°C° 0 mm 2 mps 763 mmHg 74%
    11:00 +9°C° 0 mm 2 mps 762 mmHg 68%
    12:00 +10°C° 0 mm 2 mps 762 mmHg 64%
    13:00 +10°C° 0 mm 2 mps 761 mmHg 61%
    14:00 +12°C° 0 mm 2 mps 761 mmHg 57%
    15:00 +10°C° 0 mm 2 mps 761 mmHg 62%
    16:00 +9°C° 0 mm 2 mps 760 mmHg 67%
    17:00 +8°C° 0 mm 2 mps 760 mmHg 72%
    18:00 +8°C° 0 mm 2 mps 760 mmHg 74%
    19:00 +8°C° 0 mm 2 mps 760 mmHg 76%
    20:00 +7°C° 0 mm 2 mps 760 mmHg 78%
    21:00 +7°C° 0 mm 2 mps 760 mmHg 80%
    22:00 +7°C° 0 mm 2 mps 759 mmHg 82%
    23:00 +7°C° 0 mm 2 mps 759 mmHg 84%

    26 November, Monday

    Time Temperature Precipitation Wind Pressure Humidity
    00:00 +7°C° 0 mm 2 mps 759 mmHg 86%
    01:00 +7°C° 0 mm 2 mps 758 mmHg 88%
    02:00 +7°C° 0 mm 2 mps 758 mmHg 90%
    03:00 +7°C° 0 mm 2 mps 758 mmHg 91%
    04:00 +7°C° 0 mm 2 mps 757 mmHg 92%
    05:00 +7°C° 0 mm 2 mps 757 mmHg 93%
    06:00 +7°C° 0 mm 3 mps 757 mmHg 93%
    07:00 +7°C° 0 mm 3 mps 757 mmHg 93%
    08:00 +7°C° 0 mm 3 mps 757 mmHg 93%
    09:00 +9°C° 0.1 mm 3 mps 756 mmHg 90%
    10:00 +10°C° 0.1 mm 4 mps 756 mmHg 87%
    11:00 +11°C° 0.1 mm 4 mps 756 mmHg 83%
    12:00 +11°C° 0.3 mm 4 mps 755 mmHg 85%
    13:00 +11°C° 0.3 mm 4 mps 755 mmHg 86%
    14:00 +12°C° 0.3 mm 3 mps 754 mmHg 87%
    15:00 +12°C° 0.4 mm 4 mps 754 mmHg 88%
    16:00 +12°C° 0.4 mm 4 mps 754 mmHg 89%
    17:00 +12°C° 0.4 mm 5 mps 753 mmHg 91%
    18:00 +12°C° 0.5 mm 5 mps 753 mmHg 92%
    19:00 +12°C° 0.5 mm 5 mps 753 mmHg 93%
    20:00 +12°C° 0.5 mm 5 mps 753 mmHg 94%
    21:00 +12°C° 0.6 mm 4 mps 753 mmHg 94%
    22:00 +12°C° 0.6 mm 4 mps 753 mmHg 94%
    23:00 +11°C° 0.6 mm 3 mps 753 mmHg 94%
    Show more